Regional Weather Roundup
Issued by NWS

Home | Current Version | Previous Version | Text Only | Print | Product List | Glossary Off
Versions: 1 2 3 4 5 6 7 8 9 10 11 12 13 14 15 16 17 18 19 20 21 22 23 24 25 26 27 28 29 30 31 32 33 34 35 36 37 38 39 40 41 42 43 44 45 46 47 48 49 50

000
ASUS43 KLMK 250810
RWRKY
KENTUCKY REGIONAL WEATHER ROUNDUP
NATIONAL WEATHER SERVICE LOUISVILLE KY
400 AM EDT SUN JUN 25 2017

NOTE "FAIR" INDICATES FEW OR NO CLOUDS BELOW 12,000 FEET
WITH NO SIGNIFICANT WEATHER AND/OR OBSTRUCTIONS TO VISIBILITY.

KYZ001>023-026-027-061>063-070>075-250900-
WESTERN AND SOUTH CENTRAL KENTUCKY

CITY           SKY/WX    TMP DP  RH WIND       PRES   REMARKS
PADUCAH        CLEAR     58  54  86 SW5       30.18S
HENDERSON      CLEAR     55  54  96 SW6       30.17R
OWENSBORO      CLEAR     60  56  86 W3        30.16S
HOPKINSVILLE   PTCLDY    60  55  83 CALM      30.17S
BOWLING GREEN  CLEAR     60  56  86 CALM      30.17S
GLASGOW        CLEAR     57  57 100 CALM      30.16S
$$

KYZ024-025-028>034-038-045-046-053-250900-
NORTH CENTRAL KENTUCKY

CITY           SKY/WX    TMP DP  RH WIND       PRES   REMARKS
LOUISVILLE/SDF CLEAR     63  52  67 W5        30.13S
LOUISVILLE/LOU CLEAR     59  55  87 CALM      30.13F
FORT KNOX      PTCLDY    55  54  95 S3        30.13S
$$

KYZ035>037-039>044-047>052-055>060-089>105-250900-
NORTHEAST KENTUCKY

CITY           SKY/WX    TMP DP  RH WIND       PRES   REMARKS
LEXINGTON      CLEAR     59  53  80 SW3       30.13F
COVINGTON      PTCLDY    55  51  86 CALM      30.10F
FRANKFORT      CLEAR     58  53  84 CALM      30.12S
$$

KYZ054-064>069-076>088-106>120-250900-
SOUTHEAST KENTUCKY

CITY           SKY/WX    TMP DP  RH WIND       PRES   REMARKS
JACKSON        CLOUDY    63  56  78 NW5       30.14S
LONDON         CLOUDY    61  57  87 CALM      30.15S
SOMERSET       CLEAR     59  59 100 CALM      30.16S
MIDDLESBORO    PTCLDY    60  60 100 CALM      30.15S
MONTICELLO     CLOUDY    60  59  96 W9        30.18S
$$





USA.gov is the U.S. government's official web portal to all federal, state and local government web resources and services.